Regional Weather Roundup
Issued by NWS

Home | Current Version | Previous Version | Graphics & Text | Print | Product List | Glossary On
Versions: 1 2 3 4 5 6 7 8 9 10 11 12 13 14 15 16 17 18 19 20 21 22 23 24 25 26 27 28 29 30 31 32 33 34 35 36 37 38 39 40 41 42 43 44 45 46 47 48 49 50
000
ASUS43 KBIS 221010
RWRND

NORTH DAKOTA REGIONAL WEATHER ROUNDUP
NATIONAL WEATHER SERVICE BISMARCK ND
500 AM CDT WED MAR 22 2017

NOTE: "FAIR" INDICATES FEW OR NO CLOUDS BELOW 12,000 FEET WITH NO
SIGNIFICANT WEATHER AND/OR OBSTRUCTIONS TO VISIBILITY.


NDZ001>003-009>011-017-221100-
NORTHWEST NORTH DAKOTA

CITY           SKY/WX    TMP DP  RH WIND       PRES   REMARKS
WILLISTON      CLOUDY    29  21  72 SE13G20   30.06F WCI  19
MINOT          CLOUDY    23  17  78 SE18      30.22F WCI   9
MINOT AFB      CLOUDY    21  17  83 SE18      30.22F WCI   6
$$

NDZ018>021-031>035-040>046-221100-
SOUTHWEST NORTH DAKOTA

CITY           SKY/WX    TMP DP  RH WIND       PRES   REMARKS
BISMARCK       CLOUDY    24  17  74 SE20      30.27F WCI  10
DICKINSON      MOCLDY    26  19  74 SE23G36   30.04F WCI  11
GARRISON         N/A     23  17  78 SE17      30.20F WCI   9
HETTINGER ARPT CLOUDY    26  19  74 SE21G29   30.08F WCI  12
$$

NDZ004>008-012>016-024-026-027-054-221100-
NORTHEAST NORTH DAKOTA

CITY           SKY/WX    TMP DP  RH WIND       PRES   REMARKS
GRAND FORKS    CLOUDY    18   9  68 SE6       30.49S WCI  10
GRND FRKS AFB  CLEAR     14  12  92 SE1       30.48F
DEVILS LAKE    FAIR      15  12  88 SE16      30.38F WCI  -1
$$

NDZ022-023-025-028>030-036>039-047>053-221100-
SOUTHEAST NORTH DAKOTA

CITY           SKY/WX    TMP DP  RH WIND       PRES   REMARKS
FARGO          CLOUDY    20   9  62 SE9       30.48F WCI   9
JAMESTOWN      CLOUDY    19  14  81 SE14      30.38F WCI   6
$$





USA.gov is the U.S. government's official web portal to all federal, state and local government web resources and services.